Race Results for
Gotta Thunder Downhill
Snow Summit, CA
(Event Information)
This is a non-competitive event
Downhill on 05/08/2004

Note: Ranking points are NOT upgrade points. An explanation of ranking points can be found here.


Men - CLYDESDALE - Clydesdale

 Place NameCity, StateTime USAC #BibTeam
1GENE HEDRICK   13:50.77  680 KELLY RACING

Men - RETRO - Retro

 Place NameCity, StateTime USAC #BibTeam
1JEFF LEMESHEWSKY   13:36.40  663 
2DEREK SLATES   19:58.16  699 

Men - WHEELCHAIR - Wheelchair

 Place NameCity, StateTime USAC #BibTeam
1BRAD MEINZER   58:49.99  1081 PARAPEOS RAC

Men - Pro - Senior

 Place NameCity, StateTime USAC #BibTeam
1JARED RANDO   09:55.36  196 GIANT/PEARL
2David KlaassenVanOorschot   Riverside, CA09:59.87 154642  203 INTENSE/SPY
3ANDREW NEETHLING   10:07.57  258 HONDA/TURNER
4Sven Martin   Newport Beach, CA10:13.71 173862  248 TURNER/HONDA
5Jeff Evans   San Jose, CA10:21.22 149037  204 KHS

Men - SM - Senior

 Place NameCity, StateTime USAC #BibTeam
1Shaun Evans   Redondo Beach, CA10:33.90 112287  230 TURNER
2Tony Gardikis   Rancho Santa Margarit, CA10:35.98 172612  245 TUR/ROMIC
3Deke Williams   Thousand Oaks, CA10:39.19 38332  222 WILMANCO
4Sean Hawkins   Boulder City, NV10:40.40 100362  256 
5Sean McClendon   Pine Valley, CA10:42.47 159018  214 123BIKE/SMTH
6Garrick Anderson   Poway, CA10:46.12 182965  166 FOX/SPY/ANSW
7Jim Beckman   Phoenix, AZ10:47.32 154001  211 TOMMY O BIKE
8Cory Gustafson   Vista, CA10:51.42 162777  249 FOES/AZONIC
9Broc Wallace   Redlands, CA10:52.71 198553  236 
10Michael Hutchison   Sherman Oaks, CA10:58.56 127139  187 TURNER RACE
11Chuck Valenzuela   Littlerock, CA11:03.71 156982  276 KHS
12Brian Durling   West Sacramento, CA11:14.15 177722  260 
13Ken Gioeli   Idyllwild, CA11:29.20 182961  188 ELLSWORTH
14Diogo Zanetti   Murrieta, CA11:38.27 189967  190 SKINSPY

Men - EX - Junior - 1-18

 Place NameCity, StateTime USAC #BibTeam
1John Swanguen   San Diego10:33.74 175203  186 COLLEGE CYCL
2Kyle Adams   Coeur D Alene, ID10:44.33 181185  178 ROMIC/EVS
3Hank Cadle   Lake Forest, CA10:53.73 191080  209 FUNPIG
4Curtis Zamora   Walnut, CA10:59.51 176182  253 ATOMIC/DEUCE
5ERIK ERIKSEN   11:00.35  235 
7NICHOLAS ORTON   11:17.22  266 
8ANGELO ALPSSIO   11:46.18  207 
9Jeremy Teman   Aptos, CA12:01.06 177737  228 NEMA
10Chase Lambert   Aptos, CA12:07.09 190056  183 

Men - EX - Senior - 19-24

 Place NameCity, StateTime USAC #BibTeam
1Michael Brown   Temecula, CA10:55.94 201801  220 PLANET X
2Alfonso Garcia   Chula Vista, CA10:56.20 199489  243 SOCA/SIX RAC
3SAMMY GARCIA   10:56.50  202 
4Ryan Senecal   Castaic, CA10:58.72 132325  223 ATOMIC/MOREW
6Ian Massey   Concord, CA11:06.77 158134  227 TM HAMANA
7Travis Eve   Long Beach, CA11:18.02 202141  173 BHC CRANEWOR
8Eigil Bisgaard   Alpine, CA11:23.36 179747  257 INTENSE
9ALEXANDER FROMER   11:49.16  280 FTHLCYCLG
10George Simoncini   Redwood City, CA11:58.68 190178  262 
11John Cary   Westlake Village, CA12:02.84 177651  261 MAXXIS/CORTI
12NICHOLAS FEDUSKA   12:10.60  239 ATOMIC BIKE
13GABRIEL URIBE   12:47.10  281 FOOTHILL CYC
DNFRYAN REDDY   57:56.87  160 BEYOND BIKES

Men - EX - Senior - 25-29

 Place NameCity, StateTime USAC #BibTeam
1CRAIG HARVEY   11:17.10  194 
2AUSTIN SMITH   11:22.29  270 
3Brian Richling   Apple Valley, CA11:25.48 29770  181 DOWNHILL XXX
4JASON PYLE   11:28.97  244 
5RAYMOND DOTTERER   11:29.81  275 BEYOND BIKES
6Robert Vigil   Lancaster, CA11:33.05 105842  259 MANITOU
7Stephen Zvorsky   Simi Valley, CA11:33.56 167804  164 BEYOND BIKES
8DAMIEN SMITH   11:44.10  172 
9CRAIG TURNER   11:58.89  265 
10Donald Morehouse   Reno, NV11:59.77 133559  250 
11George Naisbitt   Santa Monica, CA12:03.00 198943  161 HELENS
12Vince Catalano   Las Vegas, NV12:45.21 192659  282 HANEBRINK
DNFChris Kief   Longmont, CO56:49.76 78093  201 FOES

Men - EX - Master - 30-34

 Place NameCity, StateTime USAC #BibTeam
1Michael Molinari   Agoura, CA11:08.10 188322  193 3M/WTB
2Leo Barillas   Palmdale, CA11:14.43 155978  208 TEAM CFR
3Aaron Potter   Phoenix, AZ11:16.08 127217  212 INTENSE/KEND
4Joshua Kelly   Bakersfield, CA11:23.95 131025  198 FOES/AZONIC
5Joe Zarazua   Ventura, CA11:37.80 160773  205 AZONIC
6Joshua Cooper   Santee, CA11:39.15 199505  272 
7Gerrit Young   Pleasanton, CA11:46.27 213151  238 SPEED DEVELO
8Jim Donahugh   Lake Forest, CA11:53.13 172214  273 ROMICMFG
9Bruce Custer   Ventura, CA11:58.92 94829  206 AZONIC
10Douglas Clark   Westchester, CA12:10.55 150064  237 
11Jason Chambers   Garden Grove, CA12:13.17 158291  241 ROMIC RACING
12Jason Scholz   Hacienda Heights, CA13:22.52 150204  232 

Men - EX - Master - 35-39

 Place NameCity, StateTime USAC #BibTeam
1Rick Nunez   San Diego, CA11:09.66 202140  229 BEYOND BIKES
2Michael Fine   Vacaville, CA11:09.84 76882  191 TM HAMANA
3Tad Lent   San Diego, CA11:26.54 194496  180 TEAM TNT
4LOR RIIMIMAKI   11:26.89  254 
5Jeff Horne   Santa Clarita, CA11:28.03 158317  176 AZONIC
6Bradley Beck   San Juan Capistrano, CA11:29.87 104241  277 NO BRAKES
7Roger Hurd   Crestline, CA11:30.08 133751  221 ROMIC SHOCKS
8Jason Simpson   La Verne, CA11:41.90 98126  252 
9JOE SIMPSON   12:00.27  255 
10Thomas Secor   Rialto, CA12:11.06 199506  216 TNT
11SAL GARCIA   12:26.83  424 PARE PROS RA
12Brett Butler   Manhattan Beach, CA12:47.65 135242  217 HONDA/TURNER
13Daniel Sanchez   La Verne, CA13:25.23 88553  279 INCYCLE
DNFRick Sanchez   Tustin, CA57:59.65 192661  219 AMGEN

Men - EX - Master - 35-99

 Place NameCity, StateTime USAC #BibTeam
1John Swanguen   San Diego, CA10:52.15 34733  271 COLLEGE CYCL
2Craig VanCleve   Henderson, NV10:55.32 110847  179 BEYOND BIKES
3Michael Jennings   San Diego, CA10:56.93 17764  226 ISLAND BOY
4Darin Delio   Lahaina, HI11:02.41 189885  278 NO BRAKES
5David Forbis   Alpine, CA11:08.35 181243  169 BEYOND BIKES
6Stuart Travis   Bend, OR11:15.21 35882  233 TURNER HONDA
7Patrick Grassmann   Laguna Niguel, CA11:18.82 183354  263 SURFACE TO A
8Michael Thompson   Murrieta, CA11:24.81 172219  218 FUN PIG/WRPT
9William Newby   Poway, CA11:31.25 135771  267 BEYOND BIKES

Men - EX - Master - 40-44

 Place NameCity, StateTime USAC #BibTeam
1Eric Steinbach   San Diego, CA11:28.51 111996  213 BEYOND BIKES
2Jeff Adams   Hesperia, CA11:36.00 1143  177 ROMIC
3Patrick Beauregard   Corona Hills, CA11:41.71 3053  225 CIRCLE CITY
4Michael Yares   Phoenix, AZ11:53.33 39161  210 NO BRAKES
5Craig Rossi   Riverside, CA11:59.84 113198  163 
6Sergio Velazquez   San Antonio12:11.35 40333  215 ATOMIC BIKES
7Keith Greene   Woodland Hills, CA12:33.72 14061  224 
8Ron Kagel   Vista, CA13:03.55 176166  251 
DNFDon Jackson   Riverside, CA57:33.68 17510  264 ODI SOUTHRID

Men - EX - Master - 45-49

 Place NameCity, StateTime USAC #BibTeam
1Moses Cruz   Tempe, AZ11:29.03 132796  197 NO BRAKES
2Gary Meinert   La Mesa, CA11:42.59 143593  167 BEYOND BIKES
3Bobby Bondurant   Big Bear City, CA12:07.66 107266  192 DEPRAVEDALL*
4Bryan Justice   Garden Grove, CA12:20.44 194146  162 NO BRAKES RA
5Chris Shelley   San Diego, CA12:32.64 187795  165 XTERRA GEAR
6Roger Gutierrez   Riverside, CA13:21.38 198502  185 NO BRAKES

Men - SP - Junior - 1-18

 Place NameCity, StateTime USAC #BibTeam
1SHANE BLANCHARD   11:44.17  662 WELLS RACING
2Larry Pennington   Poway, CA11:50.54 191748  640 BEYOND BIKES
3Daniel Nidzieko   Poway, CA11:51.02 192010  636 LBR
4Ryan Anderson   Poway, CA11:51.16 189630  631 A / N RACING
5MILES PAYTON   12:12.73  633 
6Sawyer Stewart   Las Vegas, NV12:13.41 202172  694 NO BRAKES
7BRUNO LUCIONI   12:14.05  684 CHECKERED FL
8LUKE HART   12:16.59  661 
9Matthew Swanguen   San Diego, CA12:29.90 182998  643 COLLEGE CYCL
10Taurino Tadeo   12:41.84 200099  692 NO BRAKES
11Blake Carney   Camarillo, CA12:48.28 200586  647 
12JORDAN LAUGHLIN   13:16.59  685 A / N RACING
13Paul Yun   San Diego, CA14:03.41 201978  656 
14Kody Adams   Hesperia, CA14:31.54 181187  667 DOWNHILL XXX
DNFTIMOTHY DIPIETRO   58:22.87  686 

Men - SP - Senior - 19-24

 Place NameCity, StateTime USAC #BibTeam
1STEPHEN KELLY   11:48.58  666 BEYOND BIKES
2Michael Heaney   Huntington Beach, CA11:57.29 181182  626 HAUS INTL
3KYLER GERACI   12:01.16  673 
4STEVE BODENSIECK   12:16.79  668 
5CESAR ALVAREZ   12:31.91  677 FOES
6Blaine Simpson   Ventura, CA12:53.64 170671  650 MEDIA STORE/
7BLAKE BAILEY   13:05.17  670 
DNFJOSE DE LA FUENTE   41:51.10  646 
DNFCYOILLE SHKOLNICK   57:00.91  690 

Men - SP - Senior - 25-29

 Place NameCity, StateTime USAC #BibTeam
1STEVEN BUSHER   11:10.01  653 IDYLLWILD
2MICHAEL NAVARRECE   11:50.92  676 
3James Nero   Huntington Beach, CA12:09.85 205099  672 
4JULLIEN THOMAS   12:17.13  679 
5T Aprey   El Cajon, CA12:35.74 200103  649 
6Eric Bradley   Placentia, CA12:53.73 192032  682 TWO WHEELS
7Stan Kao   Anaheim, CA13:29.61 192033  698 
8RYAN COCKROFT   13:50.90  683 OAKLEY MAMMO
DNFMatt Sutton   Silverthorne, CO57:12.23 192797  695 KEYSTONE BIK

Men - SP - Master - 30-34

 Place NameCity, StateTime USAC #BibTeam
1JACOBUS PINO   11:10.18  654 IDYLLWILD
2DARREN COX   11:16.53  644 
3THEO PARKER   11:28.92  652 IDYLLWILD
4Josue Estrada   San Diego, CA11:34.94 11006  696 PHILS BBQ
5DAVID KENYON   11:46.13  651 IDYLLWILD
6WESLEY ROURKE   11:55.34  689 
7TONY AGUIRRE   12:02.72  655 PLATINUM X
8JUSTIN PHILLIPS   12:13.77  688 SPORTS WEST
9Robert Rose   Pahrump, NV12:47.96 200110  638 INTNS/FUNPIG
10STEVE BAEZ   13:05.41  700 ATOMIC

Men - SP - Master - 35-39

 Place NameCity, StateTime USAC #BibTeam
1Craig Bonner   Hollywood, CA11:58.65 213714  678 DAMAGED GEAR
2NORMAN BREES   11:59.69  632 FAT LARRY
3CHRIS FRUCTUS   12:05.98  665 TAILLEFER US
4JIM SCHENCK   12:17.13  660 BEYOND BIKES
5Darren Rosten   Fillmore, CA12:19.05 30675  639 VIKING BROS
6Don Herner   Anahiem Hills, CA12:28.58 15955  671 TURNER HONDA
7Stephen Aller   Las Vegas, NV12:33.08 155217  693 NO BRAKES
8Steve Melahn   San Jose, CA12:54.30 199854  659 
9CURTIS LEE   13:16.54  625 
10JEFF JARVIS   13:20.66  664 DOWNFAST

Men - SP - Master - 40-44

 Place NameCity, StateTime USAC #BibTeam
1Don Doris   San Diego, CA11:55.49 199364  630 
2Thomas Gabehart   Poway, CA11:58.98 40110  627 NO BRAKES
3PAUL KANE   12:28.32  628 MICHAEL BK/C
4Bryan Butler   Costa Mesa, CA12:42.06 194527  645 SMITH SPT OP
5SERGIO BRAVO   13:24.26  635 
DNFRick Durbin   Colorado Springs, CO57:01.94 204565  642 
DNFThomas Jefferson   San Diego, CA41:51.10 192807  641 

Men - SP - Master - 45-49

 Place NameCity, StateTime USAC #BibTeam
1CHRIS FEDUSKA   13:17.90  675 CALVERY CHAP
2RICK LAKE   14:07.82  691 ADVENTURE BI

Men - SP - Master - 50-54

 Place NameCity, StateTime USAC #BibTeam
1Steve Bird   Sherman Oaks, CA12:25.38 3738  170 I MARTIN IMP

Men - BG - Junior - 1-10

 Place NameCity, StateTime USAC #BibTeam
1THOMAS HURD   21:14.53  1070 ROMIC RACI

Men - BG - Junior - 11-14

 Place NameCity, StateTime USAC #BibTeam
1SKYE PARKS   12:19.33  1065 
2Brian Pracht   San Juan Capistrano, CA12:22.68 207395  1028 
3Justin DiVito   Orange, CA13:02.65 200111  1072 INTENSE
4John Secor   Rialto, CA14:03.63 234418  1073 TNT RACING
5JAMISON BAKER   14:09.25  1054 
6Kyle Meinert   14:14.85 183343  1027 ZUMWALTS
7JORDAN MELLETT   14:43.50  1041 BICYCLES OF
8Joshua Nidzieko   Poway, CA15:42.84 201225  1031 A / N RACING
9LOGAN HOLSAPPLE   16:11.79  1053 A / N RACING
DNFChad Durbin   Colorado Springs, CO58:21.95 211473  1047 
DNFBrandon Pennington   Poway, CA56:59.31 197220  1035 BEYOND BIKES

Men - BG - Junior - 15-16

 Place NameCity, StateTime USAC #BibTeam
1JAKE CAPRIOTT   11:35.62  1080 ROMIC
2Brad Oien   Fountain Valley, CA12:06.16 199509  1094 MAXXIS/SUNRD
3CAMERON SHACKLETON   12:21.24  1086 
4Giovanni Velazguez   Big Bear Lake, CA12:49.17 210635  1064 ATOMIC BIKES
5ADRIAN GARCIA   12:53.38  1082 NO FRIENDS
6NATHAN GLIBBERY   13:05.35  1084 
7DYLAN LOS HUERTOS   13:13.83  1036 
8LOREN BRINDZE   14:41.99  1040 
9Eric Snow   Rancho Santa Fe, CA14:52.90 197056  1050 NO FEAR
10Andrew Nidzieko   Poway, CA14:58.26 201224  1032 A / N RACING
11Jason Odermatt   Poway, CA15:08.43 199846  1049 123BIKES
12LANCE DESBAILLETS   15:30.12  1083 

Men - BG - Junior - 17-18

 Place NameCity, StateTime USAC #BibTeam
1DAVID HADRAVA   12:26.08  1091 IDYLLWILD
3JUSTIN SHARP   13:13.94  1046 
4Kevin Norling   Poway, CA13:39.92 192517  1088 123BIKES.COM
DNFROBERT ANTONYAN   58:10.62  1066 

Men - BG - Senior - 19-24

 Place NameCity, StateTime USAC #BibTeam
1OSCAR MESIA   12:30.51  1059 
2JOE SULLIVAN   12:34.84  1056 
3DAVID GARCIA   13:29.03  1085 
DNFTyler LeMoine   Beverly Hills, CA57:39.89 153894  1096 
DNFCHRISTIAN STANGE   57:36.57  1079 JUST RIDE

Men - BG - Senior - 25-29

 Place NameCity, StateTime USAC #BibTeam
1ERIK WILLIAMS   13:54.28  1089 LOW BUDGET R

Men - BG - Master - 30-34

 Place NameCity, StateTime USAC #BibTeam
1FRANK JANSEN   13:07.85  1097 BIGOWIE RACI
2BEN GEHRET   13:24.48  1090 
DNFART VELANTE   57:59.41  1068 
DNFBarry Hirst   Fillmore, CA41:51.10 190221  1062 

Men - BG - Master - 35-39

 Place NameCity, StateTime USAC #BibTeam
1DAVID PEACOCK   12:24.09  1093 
2BRYAN HAAS   12:33.22  1026 
3Gary Chapman   Charlotte, NC13:09.62 209132  1061 
4Barry Burns   Lakeside, CA13:51.56 212001  1071 

Men - BG - Master - 35-99

 Place NameCity, StateTime USAC #BibTeam
1JOHN PATRICK FLAGLER   13:12.48  1087 
2Rick Sullivan   Riverside, CA18:04.72 153861  1051 WOODCREST BI

Men - BG - Master - 40-44

 Place NameCity, StateTime USAC #BibTeam
1GREY MARINOFF   13:11.42  1075 
2ALAN CHURCH   13:16.28  1069 LET IT RIDE
3DAVID RUBOTTOM   14:00.61  1074 
DNFDOUG MALLOY   58:18.92  1077 JUST RIDE

Men - BG - Master - 45-49

 Place NameCity, StateTime USAC #BibTeam
1BILL MELLETT   14:22.41  1043 BIKES OF OJA
2Steven Kaufman   Orange, CA14:38.68 193496  1030 TRIAD GROUP
3Rich Fersch   La Habra, CA14:39.63 181198  1037 RACE HAUS
4RICK LEDESMA   17:00.18  1045 

Men - BG - Master - 55-99

 Place NameCity, StateTime USAC #BibTeam
1DON JOHNSON   14:36.65  1067 DJ CONSTRUCT

Women - Pro - Senior

 Place NameCity, StateTime USAC #BibTeam
1Tara Llanes   Brea, CA11:40.31 21383  195 GIANT/PEARL
2Anka Martin   Laguna Beach, CA11:44.56 172194  246 TURNER/HONDA
3Tammy Pickerrell   Berthoud, CO12:11.55 146574  274 
4SUSANNE LILJEROOS   12:28.46  189 AZONIC
5Chelsea Redwood   Concord, NH12:40.60 187886  200 NO BRAKES

Women - EX - Junior - 1-18

 Place NameCity, StateTime USAC #BibTeam
1Rileigh Aller   Las Vegas, NV12:44.97 182947  268 NO BRAKES

Women - EX - Senior - 19-29

 Place NameCity, StateTime USAC #BibTeam
1Tenille Smith   Reno, NV12:41.09 194600  182 FOX SHOX/
2KOTE DRISCOLL   13:13.69  240 

Women - EX - Master - 30-39

 Place NameCity, StateTime USAC #BibTeam
1Colleen Baker   Pahrump, NV13:33.48 185527  175 INTNS/FUNPIG
2Linda Travis   Bend, OR13:34.35 185790  231 TURNER-ROMIC
3Nancy Harris   Riverside, CA14:11.87 175876  184 NO BRAKES
4Donna Vargas   Mission Viejo, CA14:14.80 194526  168 TM AFP/VELO
5Kim Gilchrist   Phoenix, AZ15:36.86 127728  234 FUNPIG

Women - EX - Master - 40-49

 Place NameCity, StateTime USAC #BibTeam
1Debi Nicholls   Trabuco Canyon, CA16:31.48 159710  199 AFP/VELO

Women - SP - Senior - 19-29

 Place NameCity, StateTime USAC #BibTeam
1Essence Barton   Thousand Oak, CA13:31.86 179924  629 GIANT/DIRTGI
2CHRISTINE ELLICOTT   14:13.34  657 NO BRAKES
3Maya Hatch   Costa Mesa, CA16:32.22 210426  687 
DNFSARAH TRAN   41:51.10  648 

Women - SP - Master - 30-39

 Place NameCity, StateTime USAC #BibTeam
1Lisa Lake   Gilbert, AZ13:52.41 154598  658 ADVENTURE BI
2Laura Drexler   San Diego, CA16:03.04 207274  669 NO BRAKES

Women - BG - Junior - 1-14

 Place NameCity, StateTime USAC #BibTeam
1BELLA GIOELI   15:26.42  1058 

Women - BG - Junior - 15-18

 Place NameCity, StateTime USAC #BibTeam
1AMANDA BAKER   14:13.05  1055 
2RANDI RUDDELL   18:29.56  1060 BEYOND BIKES

Report missing or incorrect license numbers

Volkswagen
USACDFShimanoBonk BreakerCUORESpySierra Nevada
UCI USA Cycling is the official governing body for all disciplines of competitive cycling in the United States. The 501c3, membership-based organization aims both to achieve sustained success in international cycling competition and to grow competitive cycling in America while delivering an exceptional customer experience.
View Children's Online Privacy Protection Policy
US Olympic Committee